Back to catalog

SL-12 DEB

LostHEO
NORAD 29474·DEBRIS·🇷🇺 Russia

Launched May 31, 1989 from Baikonur Cosmodrome

Loading…

Next Passes (next 24 hours)

TLE

StaleSource: Space-Track

Epoch: Nov 12, 2010, 05:06 UTC

1 29474U 89039DU  10316.21285869 -.00017067 +00000-0 -21890-2 0  9992
2 29474 066.3340 331.8530 5136392 285.5931 024.3233 05.41447073073647

Track SL-12 DEB in real time with AllMySat

Download on the App Store